• In Netherlands
  • List of Countries
  • For 7 days
  • Water Temperature
  • Satellite Maps
  • Weather Map
  • Weather Widgets
  • user-avatar
    Login

    Hourly Weather Essen

    Today, 27 May, Sunday

    Time Temperature Precipitation Wind Pressure Humidity
    00:00 +20°C° 0 mm 3 mps 757 mmHg 68%
    01:00 +20°C° 0.1 mm 2 mps 756 mmHg 71%
    02:00 +19°C° 0.1 mm 2 mps 756 mmHg 74%
    03:00 +18°C° 0.1 mm 2 mps 756 mmHg 78%
    04:00 +19°C° 0.1 mm 2 mps 756 mmHg 77%
    05:00 +20°C° 0.1 mm 2 mps 756 mmHg 76%
    06:00 +20°C° 0 mm 2 mps 756 mmHg 72%
    07:00 +23°C° 0 mm 2 mps 756 mmHg 67%
    08:00 +25°C° 0 mm 2 mps 756 mmHg 61%
    09:00 +27°C° 0 mm 3 mps 756 mmHg 56%
    10:00 +28°C° 0 mm 3 mps 756 mmHg 51%
    11:00 +29°C° 0 mm 3 mps 755 mmHg 46%
    12:00 +30°C° 0 mm 3 mps 755 mmHg 41%
    13:00 +29°C° 0.2 mm 3 mps 755 mmHg 45%
    14:00 +28°C° 0.2 mm 3 mps 755 mmHg 49%
    15:00 +28°C° 0.2 mm 3 mps 754 mmHg 53%
    16:00 +27°C° 0.6 mm 3 mps 754 mmHg 57%
    17:00 +26°C° 0.6 mm 2 mps 754 mmHg 62%
    18:00 +25°C° 0.6 mm 2 mps 754 mmHg 67%
    19:00 +24°C° 1 mm 2 mps 754 mmHg 71%
    20:00 +23°C° 1 mm 2 mps 755 mmHg 76%
    21:00 +21°C° 1 mm 2 mps 755 mmHg 80%
    22:00 +20°C° 0 mm 2 mps 755 mmHg 80%
    23:00 +20°C° 0 mm 2 mps 755 mmHg 81%

    Tomorrow, 28 May, Monday

    Time Temperature Precipitation Wind Pressure Humidity
    00:00 +20°C° 0 mm 2 mps 755 mmHg 81%
    01:00 +20°C° 0 mm 1 mps 755 mmHg 81%
    02:00 +20°C° 0 mm 1 mps 755 mmHg 82%
    03:00 +20°C° 0 mm 1 mps 755 mmHg 82%
    04:00 +20°C° 0 mm 1 mps 755 mmHg 80%
    05:00 +21°C° 0 mm 1 mps 755 mmHg 77%
    06:00 +22°C° 0 mm 1 mps 755 mmHg 75%
    07:00 +24°C° 0 mm 1 mps 755 mmHg 67%
    08:00 +26°C° 0 mm 2 mps 755 mmHg 59%
    09:00 +28°C° 0 mm 2 mps 755 mmHg 52%
    10:00 +29°C° 0 mm 2 mps 755 mmHg 48%
    11:00 +30°C° 0 mm 2 mps 755 mmHg 44%
    12:00 +31°C° 0 mm 2 mps 755 mmHg 40%
    13:00 +31°C° 0 mm 2 mps 755 mmHg 41%
    14:00 +31°C° 0 mm 3 mps 754 mmHg 41%
    15:00 +31°C° 0 mm 3 mps 754 mmHg 42%
    16:00 +30°C° 0 mm 3 mps 754 mmHg 47%
    17:00 +29°C° 0 mm 3 mps 754 mmHg 52%
    18:00 +28°C° 0 mm 3 mps 754 mmHg 58%
    19:00 +27°C° 0 mm 3 mps 754 mmHg 62%
    20:00 +26°C° 0 mm 3 mps 754 mmHg 67%
    21:00 +25°C° 0 mm 3 mps 754 mmHg 71%
    22:00 +24°C° 0 mm 2 mps 754 mmHg 74%
    23:00 +23°C° 0 mm 2 mps 754 mmHg 77%

    Day after tomorrow, 29 May, Tuesday

    Time Temperature Precipitation Wind Pressure Humidity
    00:00 +21°C° 0 mm 2 mps 754 mmHg 79%
    01:00 +21°C° 0 mm 2 mps 753 mmHg 81%
    02:00 +20°C° 0 mm 2 mps 753 mmHg 82%
    03:00 +20°C° 0 mm 2 mps 753 mmHg 84%
    04:00 +21°C° 0 mm 2 mps 753 mmHg 81%
    05:00 +23°C° 0 mm 2 mps 753 mmHg 78%
    06:00 +23°C° 0 mm 2 mps 753 mmHg 75%
    07:00 +25°C° 0 mm 2 mps 752 mmHg 69%
    08:00 +27°C° 0 mm 2 mps 752 mmHg 63%
    09:00 +28°C° 0 mm 2 mps 752 mmHg 57%
    10:00 +29°C° 0.3 mm 2 mps 751 mmHg 55%
    11:00 +30°C° 0.3 mm 2 mps 751 mmHg 53%
    12:00 +30°C° 0.3 mm 2 mps 751 mmHg 51%
    13:00 +30°C° 0.4 mm 2 mps 750 mmHg 53%
    14:00 +30°C° 0.4 mm 2 mps 750 mmHg 55%
    15:00 +29°C° 0.4 mm 2 mps 750 mmHg 57%
    16:00 +28°C° 0.9 mm 2 mps 749 mmHg 62%
    17:00 +27°C° 0.9 mm 2 mps 749 mmHg 67%
    18:00 +26°C° 0.9 mm 2 mps 749 mmHg 72%
    19:00 +25°C° 0.4 mm 2 mps 749 mmHg 74%
    20:00 +24°C° 0.4 mm 1 mps 749 mmHg 77%
    21:00 +24°C° 0.4 mm 1 mps 749 mmHg 79%
    22:00 +23°C° 0.5 mm 1 mps 749 mmHg 81%
    23:00 +23°C° 0.5 mm 1 mps 748 mmHg 82%

    30 May, Wednesday

    Time Temperature Precipitation Wind Pressure Humidity
    00:00 +22°C° 0.5 mm 1 mps 748 mmHg 83%
    01:00 +22°C° 0.1 mm 1 mps 748 mmHg 84%
    02:00 +20°C° 0.1 mm 2 mps 748 mmHg 84%
    03:00 +20°C° 0.1 mm 2 mps 748 mmHg 85%
    04:00 +20°C° 0 mm 2 mps 748 mmHg 83%
    05:00 +21°C° 0 mm 2 mps 748 mmHg 82%
    06:00 +21°C° 0 mm 2 mps 748 mmHg 80%
    07:00 +24°C° 0.2 mm 2 mps 748 mmHg 73%
    08:00 +25°C° 0.2 mm 2 mps 748 mmHg 67%
    09:00 +27°C° 0.2 mm 3 mps 749 mmHg 60%
    10:00 +28°C° 0 mm 3 mps 749 mmHg 56%
    11:00 +29°C° 0 mm 3 mps 749 mmHg 51%
    12:00 +30°C° 0 mm 3 mps 749 mmHg 47%
    13:00 +30°C° 0 mm 2 mps 749 mmHg 46%
    14:00 +30°C° 0 mm 2 mps 749 mmHg 46%
    15:00 +30°C° 0 mm 2 mps 748 mmHg 45%
    16:00 +29°C° 0 mm 2 mps 749 mmHg 50%
    17:00 +28°C° 0 mm 2 mps 749 mmHg 54%
    18:00 +28°C° 0 mm 2 mps 749 mmHg 59%
    19:00 +26°C° 0.1 mm 1 mps 749 mmHg 64%
    20:00 +25°C° 0.1 mm 1 mps 749 mmHg 69%
    21:00 +23°C° 0.1 mm 1 mps 750 mmHg 74%
    22:00 +23°C° 0.1 mm 1 mps 750 mmHg 76%
    23:00 +22°C° 0.1 mm 1 mps 750 mmHg 79%

    31 May, Thursday

    Time Temperature Precipitation Wind Pressure Humidity
    00:00 +22°C° 0.1 mm 1 mps 750 mmHg 81%
    01:00 +22°C° 0.2 mm 1 mps 750 mmHg 83%
    02:00 +21°C° 0.2 mm 1 mps 750 mmHg 84%
    03:00 +21°C° 0.2 mm 1 mps 750 mmHg 86%
    04:00 +22°C° 0.5 mm 1 mps 750 mmHg 84%
    05:00 +22°C° 0.5 mm 1 mps 750 mmHg 83%
    06:00 +23°C° 0.5 mm 1 mps 751 mmHg 81%
    07:00 +24°C° 1.1 mm 1 mps 751 mmHg 75%
    08:00 +26°C° 1.1 mm 2 mps 751 mmHg 68%
    09:00 +27°C° 1.1 mm 2 mps 751 mmHg 62%
    10:00 +28°C° 0.9 mm 2 mps 751 mmHg 60%
    11:00 +28°C° 0.9 mm 3 mps 751 mmHg 59%
    12:00 +29°C° 0.9 mm 3 mps 751 mmHg 58%
    13:00 +28°C° 1.1 mm 3 mps 751 mmHg 59%
    14:00 +28°C° 1.1 mm 3 mps 751 mmHg 61%
    15:00 +27°C° 1.1 mm 2 mps 751 mmHg 63%
    16:00 +27°C° 0.5 mm 2 mps 751 mmHg 66%
    17:00 +26°C° 0.5 mm 2 mps 751 mmHg 69%
    18:00 +25°C° 0.5 mm 2 mps 752 mmHg 72%
    19:00 +24°C° 0.2 mm 2 mps 752 mmHg 74%
    20:00 +23°C° 0.2 mm 2 mps 752 mmHg 76%
    21:00 +23°C° 0.2 mm 2 mps 752 mmHg 78%
    22:00 +21°C° 0.2 mm 3 mps 753 mmHg 79%
    23:00 +20°C° 0.2 mm 3 mps 753 mmHg 80%

    1 June, Friday

    Time Temperature Precipitation Wind Pressure Humidity
    00:00 +20°C° 0.2 mm 3 mps 753 mmHg 81%
    01:00 +19°C° 0.1 mm 3 mps 753 mmHg 81%
    02:00 +19°C° 0.1 mm 3 mps 753 mmHg 80%
    03:00 +18°C° 0.1 mm 3 mps 753 mmHg 80%
    04:00 +19°C° 0 mm 3 mps 754 mmHg 79%
    05:00 +19°C° 0 mm 3 mps 754 mmHg 77%
    06:00 +19°C° 0 mm 3 mps 754 mmHg 75%
    07:00 +21°C° 0 mm 3 mps 754 mmHg 70%
    08:00 +23°C° 0 mm 4 mps 754 mmHg 65%
    09:00 +25°C° 0 mm 4 mps 754 mmHg 59%
    10:00 +26°C° 0 mm 4 mps 754 mmHg 55%
    11:00 +27°C° 0 mm 4 mps 754 mmHg 51%
    12:00 +28°C° 0 mm 5 mps 754 mmHg 47%
    13:00 +28°C° 0 mm 5 mps 754 mmHg 46%
    14:00 +28°C° 0 mm 5 mps 754 mmHg 45%
    15:00 +28°C° 0 mm 5 mps 754 mmHg 44%
    16:00 +27°C° 0 mm 5 mps 754 mmHg 48%
    17:00 +26°C° 0 mm 4 mps 754 mmHg 51%
    18:00 +25°C° 0 mm 4 mps 754 mmHg 55%
    19:00 +22°C° 0 mm 4 mps 755 mmHg 57%
    20:00 +21°C° 0 mm 4 mps 755 mmHg 60%
    21:00 +20°C° 0 mm 4 mps 755 mmHg 62%
    22:00 +19°C° 0 mm 4 mps 756 mmHg 63%
    23:00 +18°C° 0 mm 3 mps 756 mmHg 64%
    Show more